Omaha, NE

8:47 PM CST on December 10, 2016 (GMT -0600)
Eppley Airfield

Weather History for KOMA - March, 2014

Change the Weather History Date:

Friday, March 14, 2014

  Actual Average Record
Temperature  
Mean Temperature 46 °F 39 °F  
Max Temperature 59 °F 50 °F 81 °F (1871)
Min Temperature 32 °F 27 °F -7 °F (1880)
Degree Days  
Heating Degree Days 19 26  
Month to date heating degree days 463 407  
Since 1 July heating degree days 5568 5205  
Cooling Degree Days 0 0  
Month to date cooling degree days 0 0  
Year to date cooling degree days 0 0  
Moisture  
Dew Point 22 °F    
Average Humidity 41    
Maximum Humidity 64    
Minimum Humidity 18    
Precipitation  
Precipitation 0.00 in 0.06 in 1.10 in (1923)
Month to date precipitation 0.07 0.72  
Year to date precipitation 0.93 2.29  
Snow  
Snow 0.00 in 0.20 in - ()
Month to date snowfall 1.3 2.3  
Since 1 July snowfall 16.2 23.5  
Snow Depth 0.00 in    
Sea Level Pressure  
Sea Level Pressure 29.84 in    
Wind  
Wind Speed 12 mph (NW)    
Max Wind Speed 31 mph    
Max Gust Speed 39 mph    
Visibility 10 miles    
Events      
T = Trace of Precipitation, MM = Missing Value Source: NWS Daily Summary

Daily Weather History Graph

Daily Weather History Graph

Search for Another Location

Airport or City:

Trip Planner

Search our weather history database for the weather conditions in past years. The results will help you decide how hot, cold, wet, or windy it might be!

Date:

Astronomy

Mar. 14, 2014 Rise Set
Actual Time 7:36 AM CDT 7:29 PM CDT
Civil Twilight 7:09 AM CDT 7:56 PM CDT
Nautical Twilight 6:37 AM CDT 8:28 PM CDT
Astronomical Twilight 6:04 AM CDT 9:01 PM CDT
Moon 5:51 PM CDT (3/14) 6:18 AM CDT (3/14)
Length of Visible Light 12h 47m
Length of Day
11h 52m
Waxing Gibbous, 96% of the Moon is Illuminated
Mar 14
Waxing Gibbous
Mar 16
Full
Mar 23
Last Quarter
Mar 30
New
Apr 7
First Quarter

Hourly Weather History & Observations

Time (CDT) Temp. Windchill Dew Point Humidity Pressure Visibility Wind Dir Wind Speed Gust Speed Precip Events Conditions
12:52 AM 55.0 °F - 19.9 °F 25% 29.63 in 10.0 mi South 13.8 mph 24.2 mph N/A   Partly Cloudy
1:52 AM 53.1 °F - 21.0 °F 29% 29.62 in 10.0 mi South 10.4 mph - N/A   Scattered Clouds
2:52 AM 51.1 °F - 19.9 °F 29% 29.66 in 10.0 mi South 8.1 mph - N/A   Partly Cloudy
3:52 AM 46.0 °F 43.1 °F 19.9 °F 35% 29.68 in 10.0 mi NW 5.8 mph - N/A   Partly Cloudy
4:52 AM 45.0 °F 40.1 °F 26.1 °F 48% 29.69 in 10.0 mi North 9.2 mph - N/A   Mostly Cloudy
5:52 AM 46.0 °F 40.2 °F 30.0 °F 54% 29.73 in 10.0 mi NNW 12.7 mph - N/A   Scattered Clouds
6:52 AM 44.1 °F 36.8 °F 28.9 °F 55% 29.78 in 10.0 mi NNW 16.1 mph - N/A   Partly Cloudy
7:52 AM 37.0 °F 31.0 °F 27.0 °F 67% 29.82 in 10.0 mi North 8.1 mph - N/A   Partly Cloudy
8:52 AM 45.0 °F 38.2 °F 28.0 °F 52% 29.86 in 10.0 mi NNW 15.0 mph - N/A   Partly Cloudy
9:52 AM 46.9 °F - 28.0 °F 48% 29.89 in 10.0 mi WNW 13.8 mph - N/A   Partly Cloudy
10:52 AM 51.1 °F - 28.0 °F 41% 29.91 in 10.0 mi NW 16.1 mph 23.0 mph N/A   Partly Cloudy
11:52 AM 52.0 °F - 24.1 °F 34% 29.92 in 10.0 mi WNW 21.9 mph 29.9 mph N/A   Clear
12:52 PM 55.9 °F - 19.9 °F 25% 29.91 in 10.0 mi NW 27.6 mph 34.5 mph N/A   Clear
1:52 PM 57.0 °F - 19.9 °F 24% 29.92 in 10.0 mi NW 25.3 mph 31.1 mph N/A   Clear
2:52 PM 57.9 °F - 16.0 °F 19% 29.91 in 10.0 mi NW 20.7 mph 35.7 mph N/A   Partly Cloudy
3:52 PM 59.0 °F - 16.0 °F 19% 29.91 in 10.0 mi NW 21.9 mph 28.8 mph N/A   Partly Cloudy
4:52 PM 59.0 °F - 17.1 °F 20% 29.91 in 10.0 mi NW 19.6 mph - N/A   Scattered Clouds
5:52 PM 57.9 °F - 18.0 °F 21% 29.92 in 10.0 mi NW 13.8 mph - N/A   Partly Cloudy
6:52 PM 55.0 °F - 19.0 °F 24% 29.93 in 10.0 mi NW 12.7 mph - N/A   Partly Cloudy
7:52 PM 51.1 °F - 18.0 °F 27% 29.95 in 10.0 mi NNW 4.6 mph - N/A   Partly Cloudy
8:52 PM 43.0 °F - 19.9 °F 40% 29.95 in 10.0 mi Calm Calm - N/A   Partly Cloudy
9:52 PM 39.9 °F - 21.0 °F 47% 29.96 in 10.0 mi Calm Calm - N/A   Partly Cloudy
10:52 PM 37.9 °F - 21.9 °F 53% 29.96 in 10.0 mi Calm Calm - N/A   Partly Cloudy
11:52 PM 36.0 °F - 21.9 °F 57% 29.96 in 10.0 mi Calm Calm - N/A   Partly Cloudy